When you browse on this site, cookies collect data to enhance your experience and personalize the content and advertising you see.
Visit our Privacy Policy to learn more. By continuing to use the site, you agree to this use of cookies and data.
  • In Sweden
  • List of Countries
  • For 7 days
  • Water Temperature
  • Weather Map
  • Weather Widgets
  • user-avatar
    Login

    Hourly Weather Bani Walid

    Today, 3 June, Wednesday

    Time Temperature Precipitation Wind Pressure Humidity
    00:00 +20°C° 0 mm 2 mps 742 mmHg 74%
    01:00 +20°C° 0 mm 1 mps 742 mmHg 79%
    02:00 +20°C° 0 mm 1 mps 742 mmHg 81%
    03:00 +20°C° 0 mm 1 mps 742 mmHg 83%
    04:00 +17°C° 0 mm 0 mps 742 mmHg 85%
    05:00 +20°C° 0 mm 1 mps 742 mmHg 80%
    06:00 +21°C° 0 mm 1 mps 742 mmHg 75%
    07:00 +21°C° 0 mm 1 mps 742 mmHg 71%
    08:00 +23°C° 0 mm 1 mps 742 mmHg 61%
    09:00 +25°C° 0 mm 1 mps 742 mmHg 51%
    10:00 +25°C° 0 mm 0 mps 742 mmHg 41%
    11:00 +29°C° 0 mm 1 mps 742 mmHg 35%
    12:00 +30°C° 0 mm 1 mps 742 mmHg 29%
    13:00 +32°C° 0 mm 1 mps 741 mmHg 23%
    14:00 +33°C° 0 mm 1 mps 741 mmHg 22%
    15:00 +33°C° 0 mm 1 mps 741 mmHg 20%
    16:00 +35°C° 0 mm 2 mps 741 mmHg 19%
    17:00 +33°C° 0 mm 4 mps 741 mmHg 26%
    18:00 +29°C° 0 mm 6 mps 741 mmHg 34%
    19:00 +27°C° 0 mm 8 mps 740 mmHg 41%
    20:00 +26°C° 0 mm 7 mps 741 mmHg 44%
    21:00 +24°C° 0 mm 6 mps 741 mmHg 47%
    22:00 +22°C° 0 mm 5 mps 742 mmHg 50%
    23:00 +22°C° 0 mm 4 mps 741 mmHg 51%

    Tomorrow, 4 June, Thursday

    Time Temperature Precipitation Wind Pressure Humidity
    00:00 +22°C° 0 mm 3 mps 741 mmHg 52%
    01:00 +21°C° 0 mm 2 mps 741 mmHg 53%
    02:00 +21°C° 0 mm 2 mps 741 mmHg 51%
    03:00 +21°C° 0 mm 2 mps 741 mmHg 50%
    04:00 +20°C° 0 mm 2 mps 741 mmHg 49%
    05:00 +23°C° 0 mm 2 mps 741 mmHg 46%
    06:00 +24°C° 0 mm 3 mps 741 mmHg 42%
    07:00 +25°C° 0 mm 3 mps 741 mmHg 39%
    08:00 +27°C° 0 mm 4 mps 741 mmHg 34%
    09:00 +30°C° 0 mm 4 mps 741 mmHg 29%
    10:00 +33°C° 0 mm 5 mps 742 mmHg 24%
    11:00 +35°C° 0 mm 5 mps 741 mmHg 21%
    12:00 +38°C° 0 mm 6 mps 741 mmHg 18%
    13:00 +40°C° 0 mm 6 mps 740 mmHg 15%
    14:00 +41°C° 0 mm 6 mps 740 mmHg 14%
    15:00 +42°C° 0 mm 5 mps 739 mmHg 13%
    16:00 +42°C° 0 mm 4 mps 738 mmHg 12%
    17:00 +39°C° 0 mm 6 mps 738 mmHg 19%
    18:00 +35°C° 0 mm 8 mps 738 mmHg 26%
    19:00 +32°C° 0 mm 10 mps 738 mmHg 32%
    20:00 +31°C° 0 mm 9 mps 738 mmHg 33%
    21:00 +31°C° 0 mm 9 mps 738 mmHg 34%
    22:00 +29°C° 0 mm 8 mps 738 mmHg 34%
    23:00 +29°C° 0 mm 7 mps 738 mmHg 31%

    Day after tomorrow, 5 June, Friday

    Time Temperature Precipitation Wind Pressure Humidity
    00:00 +29°C° 0 mm 6 mps 738 mmHg 28%
    01:00 +30°C° 0 mm 5 mps 737 mmHg 25%
    02:00 +29°C° 0.1 mm 5 mps 737 mmHg 26%
    03:00 +29°C° 0.1 mm 4 mps 737 mmHg 27%
    04:00 +28°C° 0.1 mm 3 mps 736 mmHg 28%
    05:00 +30°C° 0.1 mm 4 mps 736 mmHg 24%
    06:00 +32°C° 0.1 mm 5 mps 736 mmHg 21%
    07:00 +34°C° 0.1 mm 6 mps 736 mmHg 17%
    08:00 +38°C° 0 mm 7 mps 736 mmHg 14%
    09:00 +43°C° 0 mm 8 mps 736 mmHg 12%
    10:00 +47°C° 0 mm 9 mps 736 mmHg 9%
    11:00 +47°C° 0 mm 11 mps 737 mmHg 8%
    12:00 +48°C° 0 mm 13 mps 737 mmHg 8%
    13:00 +49°C° 0 mm 15 mps 737 mmHg 7%
    14:00 +46°C° 0 mm 14 mps 737 mmHg 13%
    15:00 +42°C° 0 mm 13 mps 738 mmHg 18%
    16:00 +39°C° 0 mm 12 mps 738 mmHg 23%
    17:00 +36°C° 0 mm 12 mps 739 mmHg 29%
    18:00 +33°C° 0 mm 12 mps 740 mmHg 34%
    19:00 +29°C° 0 mm 11 mps 740 mmHg 39%
    20:00 +28°C° 0 mm 9 mps 741 mmHg 41%
    21:00 +26°C° 0 mm 8 mps 742 mmHg 43%
    22:00 +24°C° 0 mm 6 mps 743 mmHg 46%
    23:00 +23°C° 0 mm 5 mps 743 mmHg 49%

    6 June, Saturday

    Time Temperature Precipitation Wind Pressure Humidity
    00:00 +23°C° 0 mm 4 mps 743 mmHg 51%
    01:00 +22°C° 0 mm 3 mps 743 mmHg 54%
    02:00 +22°C° 0 mm 3 mps 743 mmHg 56%
    03:00 +21°C° 0 mm 3 mps 743 mmHg 58%
    04:00 +21°C° 0 mm 3 mps 743 mmHg 60%
    05:00 +22°C° 0 mm 3 mps 743 mmHg 57%
    06:00 +22°C° 0 mm 3 mps 744 mmHg 54%
    07:00 +24°C° 0 mm 3 mps 744 mmHg 51%
    08:00 +26°C° 0 mm 3 mps 745 mmHg 44%
    09:00 +28°C° 0 mm 2 mps 745 mmHg 37%
    10:00 +29°C° 0 mm 2 mps 745 mmHg 29%
    11:00 +31°C° 0 mm 2 mps 745 mmHg 27%
    12:00 +32°C° 0 mm 2 mps 744 mmHg 24%
    13:00 +35°C° 0 mm 2 mps 744 mmHg 21%
    14:00 +35°C° 0 mm 2 mps 744 mmHg 20%
    15:00 +36°C° 0 mm 3 mps 743 mmHg 18%
    16:00 +37°C° 0 mm 3 mps 743 mmHg 17%
    17:00 +34°C° 0 mm 4 mps 743 mmHg 23%
    18:00 +32°C° 0 mm 5 mps 743 mmHg 29%
    19:00 +28°C° 0 mm 7 mps 743 mmHg 36%
    20:00 +27°C° 0 mm 6 mps 744 mmHg 44%
    21:00 +25°C° 0 mm 5 mps 744 mmHg 53%
    22:00 +23°C° 0 mm 4 mps 745 mmHg 61%
    23:00 +22°C° 0 mm 3 mps 744 mmHg 65%

    7 June, Sunday

    Time Temperature Precipitation Wind Pressure Humidity
    00:00 +23°C° 0 mm 2 mps 744 mmHg 69%
    01:00 +22°C° 0 mm 1 mps 744 mmHg 73%
    02:00 +22°C° 0 mm 1 mps 744 mmHg 73%
    03:00 +21°C° 0 mm 1 mps 744 mmHg 73%
    04:00 +21°C° 0 mm 1 mps 744 mmHg 73%
    05:00 +21°C° 0 mm 2 mps 744 mmHg 66%
    06:00 +23°C° 0 mm 2 mps 744 mmHg 58%
    07:00 +24°C° 0 mm 3 mps 744 mmHg 51%
    08:00 +27°C° 0 mm 3 mps 744 mmHg 42%
    09:00 +29°C° 0 mm 3 mps 744 mmHg 34%
    10:00 +33°C° 0 mm 3 mps 744 mmHg 25%
    11:00 +34°C° 0 mm 2 mps 744 mmHg 22%
    12:00 +35°C° 0 mm 1 mps 744 mmHg 19%
    13:00 +35°C° 0 mm 0 mps 743 mmHg 16%
    14:00 +37°C° 0 mm 1 mps 743 mmHg 15%
    15:00 +39°C° 0 mm 2 mps 743 mmHg 14%
    16:00 +39°C° 0 mm 3 mps 742 mmHg 13%
    17:00 +38°C° 0 mm 3 mps 742 mmHg 16%
    18:00 +36°C° 0 mm 4 mps 742 mmHg 19%
    19:00 +34°C° 0 mm 5 mps 742 mmHg 21%
    20:00 +32°C° 0 mm 4 mps 743 mmHg 27%
    21:00 +29°C° 0 mm 4 mps 743 mmHg 32%
    22:00 +27°C° 0 mm 4 mps 743 mmHg 38%
    23:00 +27°C° 0 mm 4 mps 743 mmHg 39%

    8 June, Monday

    Time Temperature Precipitation Wind Pressure Humidity
    00:00 +26°C° 0 mm 4 mps 743 mmHg 40%
    01:00 +25°C° 0 mm 5 mps 743 mmHg 42%
    02:00 +25°C° 0 mm 4 mps 742 mmHg 42%
    03:00 +23°C° 0 mm 4 mps 742 mmHg 42%
    04:00 +22°C° 0 mm 4 mps 742 mmHg 43%
    05:00 +25°C° 0 mm 4 mps 742 mmHg 39%
    06:00 +26°C° 0 mm 5 mps 742 mmHg 35%
    07:00 +27°C° 0 mm 5 mps 742 mmHg 30%
    08:00 +30°C° 0 mm 5 mps 742 mmHg 24%
    09:00 +34°C° 0 mm 5 mps 742 mmHg 18%
    10:00 +37°C° 0 mm 5 mps 742 mmHg 12%
    11:00 +40°C° 0 mm 5 mps 742 mmHg 11%
    12:00 +41°C° 0 mm 5 mps 741 mmHg 10%
    13:00 +43°C° 0 mm 5 mps 741 mmHg 9%
    14:00 +45°C° 0 mm 5 mps 740 mmHg 9%
    15:00 +45°C° 0 mm 5 mps 740 mmHg 9%
    16:00 +46°C° 0 mm 5 mps 739 mmHg 9%
    17:00 +42°C° 0 mm 6 mps 739 mmHg 14%
    18:00 +39°C° 0 mm 7 mps 739 mmHg 19%
    19:00 +35°C° 0 mm 8 mps 739 mmHg 24%
    20:00 +33°C° 0 mm 7 mps 740 mmHg 26%
    21:00 +32°C° 0 mm 6 mps 740 mmHg 28%
    22:00 +30°C° 0 mm 4 mps 740 mmHg 31%
    23:00 +30°C° 0 mm 4 mps 740 mmHg 27%
    Show more